Regional Weather Roundup
Issued by NWS Sioux Falls, SD

Home | Current Version | Previous Version | Graphics & Text | Print | Product List | Glossary On
Versions: 1 2 3 4 5 6 7 8 9 10 11 12 13 14 15 16 17 18 19 20 21 22 23 24 25 26 27 28 29 30 31 32 33 34 35 36 37 38 39 40 41 42 43 44 45 46 47 48 49 50
000
ASUS43 KFSD 271710
RWRFSD

WEATHER ROUNDUP FOR SE SOUTH DAKOTA/SW MINNESOTA/NW IOWA
NATIONAL WEATHER SERVICE SIOUX FALLS SD
1200 PM CDT WED AUG 27 2014

NOTE: "FAIR" INDICATES FEW OR NO CLOUDS BELOW 12,000 FEET WITH NO
SIGNIFICANT WEATHER AND OR OBSTRUCTIONS TO VISIBILITY.


SDZ038>040-050-052>070-271800-
SOUTHEAST SOUTH DAKOTA

CITY           SKY/WX    TMP DP  RH WIND       PRES   REMARKS
CHAMBERLAIN    PTSUNNY   70  64  80 SE15      30.12F
HURON          CLOUDY    69  60  73 SE7       30.16F
MADISON        FAIR      66  63  88 SE9       30.19F
MITCHELL       CLOUDY    71  62  73 E10       30.15F
SIOUX FALLS    CLOUDY    67  59  75 E10       30.18F
WINNER         CLOUDY    73  66  78 E14       30.12S
YANKTON        CLOUDY    64  61  88 E12       30.14F
$$

MNZ071-072-080-081-089-090-097-098-271800-
SOUTHWEST MINNESOTA

CITY           SKY/WX    TMP DP  RH WIND       PRES   REMARKS
FAIRMONT       CLOUDY    66  55  68 SE5       30.21F
JACKSON        CLOUDY    68  55  64 E5        30.22F
LUVERNE        CLOUDY    68  59  73 SE7       30.21F
MARSHALL       CLOUDY    70  57  64 SE9       30.20S
MONTEVIDEO     MOSUNNY   73  61  64 S5        30.22F
PIPESTONE      CLOUDY    70  61  73 S8        30.20F
REDWOOD FALLS  PTSUNNY   70  58  65 SE8       30.21F
TRACY          CLOUDY    71  60  67 SE8       30.21F
WINDOM         CLOUDY    68  57  68 E6        30.22F
WORTHINGTON    CLOUDY    66  59  77 SE7       30.22F
$$

IAZ001>003-012>014-020>022-031-032-NEZ013-014-SDZ071-271800-
NORTHWEST IOWA

CITY           SKY/WX    TMP DP  RH WIND       PRES   REMARKS
CHEROKEE       CLOUDY    66  62  87 SE5       30.20F
DENISON        HVY RAIN  66  66 100 E8        30.16F
ESTHERVILLE    CLOUDY    66  59  78 E6        30.21F
LE MARS        CLOUDY    66  61  82 E7        30.19F
ORANGE CITY    CLOUDY    66  57  72 SE5       30.19F
SHELDON        CLOUDY    66  61  82 SE8       30.19F
SIOUX CITY     LGT RAIN  66  64  93 E9        30.16F
SPENCER        CLOUDY    67  59  75 SE7       30.21F
STORM LAKE     CLOUDY    66  64  94 E8        30.21S
$$

ABBREVIATIONS USED IN REMARKS
   TC - TEMPERATURE IN CELSIUS
  WCI - WIND CHILL INDEX
   HX - HEAT INDEX
  VSB - VISIBILITY




USA.gov is the U.S. government's official web portal to all federal, state and local government web resources and services.